Location: Beetenbrück
(52.8113°N, 9.5946°E)
Time: 22:03:34
(UTC+00:00)

SL-08 R/B - Pass Details

Date: 14 April 2026
Orbit: 944 x 1006 km, 83.0° (Epoch: 12 May)

Event Time Altitude Azimuth Distance (km) Brightness Sun altitude
Exits shadow 23:14:22 66° 123° (ESE) 1,038 4.4 -27.5°
Maximum altitude 23:14:48 69° 95° (E) 1,023 4.5 -27.5°
Drops below altitude 10° 23:20:58 10° 14° (NNE) 2,717 7.7 -27.5°
Sets 23:23:30 0° 12° (NNE) 3,677 8.7 -27.5°
